[[{"header":{"parameterUnit":"m.s-1","parameterCategory":2,"la1":30.2991,"la2":30.254,"lo1":-89.0895,"lo2":-89.0444,"dy":0.0017,"dx":0.0017,"nx":28,"ny":28,"refTime":"2024-05-13T21:00:00:Z","depth":"0","parameterNumber":2,"parameterNumberName":"U-component_of_CURRENTS"},"data":[0,0,0,0,0,0,0,0,0,0,0,0,0,0,0,0,0,0,0,0,0,0,0,0,0,0,0,0,0,0,0,0,0,0,0,0,0,0,0,0,0,0,0,0,0,0,0,0,0,0,0,0,0,0,0,0,0,0,0.2857,0.2857,0,0.2861,0.2861,0.286,0.2842,0.2842,0.2842,0.2842,0.2801,0.28,0.2799,0,0,0,0,0,0,0,0,0,0,0,0,0,0.2814,0.2814,0.2857,0.2857,0.2858,0.2861,0.2861,0.286,0.2842,0.2842,0.2842,0.2842,0.2801,0.28,0.2798,0,0,0,0,0,0,0,0,0,0,0,0,0,0.2822,0.2814,0.2856,0.2852,0.2852,0.2861,0.2861,0.286,0.2842,0.2842,0.2842,0.2842,0.2801,0.28,0.2798,0.2792,0,0,0.2794,0.2793,0,0,0,0,0,0,0,0,0.2822,0.2823,0.2853,0.2853,0.2853,0.2855,0.2831,0.2837,0.2842,0.2841,0.2842,0.2842,0.2818,0.2815,0.281,0.279,0.2788,0.2794,0.2793,0.2792,0.2792,0,0,0,0,0,0,0,0.2821,0.2823,0.2853,0.2853,0.2853,0.2844,0.2845,0.2831,0.2826,0.2841,0.2841,0.2849,0.2817,0.2811,0.2809,0.2788,0.2794,0.2792,0.2791,0.2791,0.2789,0.279,0,0,0,0,0,0,0.2831,0.2822,0.2853,0.2854,0.2842,0.2846,0.2846,0.2851,0.2827,0.2825,0.2849,0.2848,0.2814,0.2811,0.2807,0.2826,0.2792,0.2791,0.279,0.2788,0.2789,0.279,0,0,0,0,0,0,0.283,0.2834,0.2853,0.2842,0.2845,0.2847,0.2852,0.2851,0.2855,0.2834,0.283,0.2856,0.2814,0.2809,0.2806,0.2823,0.279,0.2789,0.2787,0.2788,0.279,0.2847,0,0,0,0,0,0,0.2829,0.2833,0.2837,0.2843,0.2846,0.2862,0.2853,0.2851,0.2862,0.2861,0.2839,0.2834,0.2813,0.2809,0.2805,0.2821,0.2787,0.2786,0.2788,0.2789,0.2844,0.285,0.2855,0,0,0,0,0,0.2827,0.2825,0.2837,0.2841,0.2852,0.2863,0.2863,0.2861,0.2863,0.2864,0.2855,0.2835,0.2816,0.2808,0.2803,0.2819,0.2785,0.2787,0.2789,0.2841,0.2848,0.2855,0,0,0,0,0,0,0.28,0.2825,0.2837,0.2841,0.2858,0.2862,0.2863,0.287,0.2864,0.2862,0.2843,0.2838,0.2845,0.2824,0.2816,0.2824,0.2799,0.28,0.284,0.2847,0.2852,0.2876,0.2786,0,0,0,0,0,0.2801,0.281,0.2835,0.2839,0.2851,0.2863,0.2868,0.2871,0.2871,0.2869,0.2855,0.2845,0.2847,0.2841,0.2831,0.2832,0.2858,0.2841,0.2846,0.2851,0.2868,0.2928,0.2942,0.2796,0.2796,0.2796,0,0,0.2789,0.2808,0.281,0.2836,0.2847,0.286,0.2864,0.2875,0.2886,0.2864,0.2865,0.2863,0.2854,0.2858,0.2859,0.2843,0.2908,0.2853,0.2858,0.2872,0.2932,0.2947,0.2959,0.2798,0.2798,0.2797,0,0,0.2767,0.2793,0.2792,0.2814,0.2843,0.2857,0.2867,0.288,0.2887,0.2894,0.2891,0.2908,0.2885,0.2897,0.2898,0.293,0.2939,0.292,0.2963,0.3022,0.3035,0.3047,0.3109,0.3126,0.2919,0.2919,0.2919,0,0.275,0.2765,0.2793,0.2806,0.283,0.2861,0.2874,0.2887,0.2895,0.2918,0.2897,0.2926,0.291,0.2955,0.2963,0.2945,0.2982,0.2938,0.3032,0.3044,0.3055,0.3116,0.3134,0.2922,0.2922,0.2921,0.2921,0,0.2732,0.2753,0.2758,0.2792,0.2819,0.2837,0.2875,0.2898,0.2916,0.2937,0.2983,0.2977,0.3004,0.2999,0.2986,0.306,0.3063,0.3037,0.3019,0.3074,0.3134,0.3152,0.2926,0.2925,0.2924,0.2924,0,0,0.266,0.2732,0.2731,0.2765,0.2821,0.284,0.2882,0.2939,0.2985,0.2995,0.3058,0.3068,0.3091,0.3096,0.3096,0.3137,0.3241,0.3122,0.3124,0.3193,0.3387,0.3398,0.3418,0.3235,0.3239,0.3241,0.3402,0,0.2639,0.2671,0.2713,0.2752,0.2783,0.2848,0.2891,0.2949,0.2999,0.3061,0.3101,0.3147,0.3122,0.3147,0.3191,0.3232,0.3289,0.3201,0.3317,0.3321,0.3331,0.3439,0.3349,0.3486,0.342,0.3423,0.3425,0,0.26,0.2639,0.2674,0.2771,0.279,0.2813,0.2922,0.2964,0.3071,0.3119,0.3194,0.323,0.3316,0.3271,0.3398,0.3347,0.338,0.3402,0.3408,0.3413,0.3365,0.3418,0.3521,0.3446,0.3452,0.345,0.3448,0,0.2545,0.2613,0.2649,0.2676,0.2777,0.2811,0.2866,0.2973,0.304,0.3164,0.3241,0.3334,0.3403,0.346,0.3526,0.3472,0.3666,0.359,0.3638,0.3639,0.3583,0.3574,0.3635,0.369,0.3689,0.3689,0.3689,0,0.251,0.2536,0.2624,0.2641,0.2694,0.2779,0.2852,0.293,0.3064,0.3154,0.3266,0.3364,0.3455,0.3572,0.3593,0.3704,0.3732,0.3689,0.3697,0.36,0.3591,0.3537,0.3476,0.3695,0.3694,0.3693,0.3691,0,0.2434,0.2494,0.2537,0.2635,0.2663,0.2695,0.2827,0.2895,0.304,0.3167,0.3219,0.3424,0.3587,0.3693,0.3813,0.3809,0.3799,0.3913,0.3803,0.3795,0.3724,0.3669,0.3603,0.349,0.3983,0.3984,0.3985,0,0.2398,0.2413,0.2501,0.2528,0.2564,0.2634,0.2692,0.2846,0.2936,0.319,0.3254,0.3483,0.3626,0.3863,0.3927,0.4033,0.3875,0.3978,0.3844,0.3756,0.37,0.3511,0.3404,0.3796,0.3796,0.3795,0.3795,0,0.2329,0.2357,0.2395,0.2446,0.2494,0.2564,0.2662,0.2725,0.2919,0.3075,0.3279,0.3421,0.3702,0.3805,0.3983,0.4009,0.3798,0.3972,0.3908,0.3604,0.3375,0.3257,0.3657,0.3792,0.3792,0.3793,0.3793,0.3793,0.2267,0.2271,0.232,0.2358,0.2414,0.2466,0.2487,0.2626,0.2761,0.2946,0.3164,0.3354,0.3614,0.387,0.3879,0.389,0.3799,0.3786,0.3745,0.3576,0.3403,0.3813,0.3932,0.3933,0.3934,0.3934,0.3935,0,0.2184,0.2204,0.2239,0.2272,0.2286,0.2361,0.2451,0.2468,0.2566,0.2797,0.2978,0.3282,0.3454,0.3629,0.3798,0.3694,0.3471,0.3596,0.3301,0.3217,0.3636,0.3565,0.3576,0.3577,0.3577,0.3577,0.3577,0.3577,0.2144,0.2136,0.2152,0.213,0.2158,0.2146,0.2169,0.2222,0.2354,0.2549,0.2743,0.2955,0.3351,0.3625,0.3637,0.3544,0.3234,0.312,0.3058,0.3368,0.338,0.3392,0.3313,0.3272,0.3271,0.2511,0.2505,0.2501]},{"header":{"parameterUnit":"m.s-1","parameterCategory":2,"la1":30.2991,"la2":30.254,"lo1":-89.0895,"lo2":-89.0444,"dy":0.0017,"dx":0.0017,"nx":28,"ny":28,"refTime":"2024-05-13T21:00:00:Z","depth":"0","parameterNumber":3,"parameterNumberName":"V-component_of_CURRENTS"},"data":[0,0,0,0,0,0,0,0,0,0,0,0,0,0,0,0,0,0,0,0,0,0,0,0,0,0,0,0,0,0,0,0,0,0,0,0,0,0,0,0,0,0,0,0,0,0,0,0,0,0,0,0,0,0,0,0,0,0,-0.0288,-0.0288,0,-0.0369,-0.037,-0.0371,-0.0426,-0.0427,-0.0427,-0.0427,-0.052,-0.0522,-0.0525,0,0,0,0,0,0,0,0,0,0,0,0,0,-0.0227,-0.0228,-0.0288,-0.0288,-0.0289,-0.0369,-0.037,-0.0371,-0.0426,-0.0427,-0.0427,-0.0427,-0.0519,-0.0522,-0.0525,0,0,0,0,0,0,0,0,0,0,0,0,0,-0.0277,-0.0228,-0.0287,-0.0326,-0.033,-0.0369,-0.037,-0.0372,-0.0426,-0.0427,-0.0427,-0.0428,-0.0519,-0.0522,-0.0525,-0.0537,0,0,-0.0535,-0.0537,0,0,0,0,0,0,0,0,-0.0274,-0.0279,-0.0319,-0.0323,-0.0328,-0.0387,-0.0383,-0.0427,-0.0426,-0.0391,-0.0427,-0.0428,-0.0476,-0.0482,-0.0498,-0.0541,-0.0545,-0.0536,-0.0538,-0.0539,-0.054,0,0,0,0,0,0,0,-0.027,-0.0276,-0.0321,-0.032,-0.0325,-0.0355,-0.0362,-0.0392,-0.0431,-0.0394,-0.0398,-0.0405,-0.0478,-0.0495,-0.0501,-0.0547,-0.0535,-0.0538,-0.054,-0.0542,-0.0586,-0.0586,0,0,0,0,0,0,-0.0255,-0.0273,-0.0318,-0.0323,-0.03,-0.0355,-0.0363,-0.0368,-0.0431,-0.044,-0.0404,-0.0407,-0.0489,-0.0497,-0.0504,-0.051,-0.0539,-0.0542,-0.0544,-0.0587,-0.0586,-0.0585,0,0,0,0,0,0,-0.0253,-0.0258,-0.0315,-0.0299,-0.0308,-0.0355,-0.0361,-0.037,-0.0382,-0.0438,-0.0448,-0.0407,-0.049,-0.05,-0.0525,-0.0514,-0.0544,-0.0547,-0.0588,-0.0587,-0.0586,-0.0529,0,0,0,0,0,0,-0.0251,-0.0257,-0.0251,-0.0298,-0.0308,-0.0319,-0.0361,-0.0371,-0.0386,-0.039,-0.0444,-0.0453,-0.0491,-0.0519,-0.0528,-0.0519,-0.0549,-0.0589,-0.0588,-0.0586,-0.0532,-0.0526,-0.0521,0,0,0,0,0,-0.0249,-0.0232,-0.025,-0.0256,-0.03,-0.0318,-0.0325,-0.0362,-0.0385,-0.0378,-0.0422,-0.0451,-0.0516,-0.0522,-0.0532,-0.0524,-0.059,-0.0588,-0.0586,-0.0534,-0.0527,-0.0521,0,0,0,0,0,0,-0.0199,-0.0238,-0.0258,-0.0254,-0.0277,-0.0326,-0.0324,-0.0353,-0.0384,-0.0391,-0.0447,-0.0459,-0.0476,-0.0504,-0.0509,-0.053,-0.0555,-0.0555,-0.0512,-0.0505,-0.05,-0.0488,-0.0552,0,0,0,0,0,-0.0186,-0.0187,-0.0226,-0.0221,-0.023,-0.0277,-0.0289,-0.0314,-0.035,-0.0364,-0.0402,-0.0442,-0.0477,-0.0493,-0.0523,-0.0537,-0.0566,-0.0536,-0.053,-0.0526,-0.0521,-0.0572,-0.0572,-0.0579,-0.0579,-0.0579,0,0,-0.0165,-0.0186,-0.0187,-0.0211,-0.0236,-0.0234,-0.0285,-0.0295,-0.0297,-0.0369,-0.0379,-0.0424,-0.0475,-0.0493,-0.0502,-0.0515,-0.0531,-0.0523,-0.0519,-0.0517,-0.0571,-0.057,-0.057,-0.0578,-0.0578,-0.0579,0,0,-0.0118,-0.0143,-0.0125,-0.014,-0.0167,-0.0196,-0.0194,-0.0235,-0.0256,-0.0273,-0.0329,-0.0369,-0.0407,-0.0453,-0.048,-0.046,-0.05,-0.0462,-0.0428,-0.0478,-0.0478,-0.0479,-0.0485,-0.0486,-0.046,-0.046,-0.046,0,-0.0087,-0.0079,-0.012,-0.0107,-0.0114,-0.0172,-0.0154,-0.0182,-0.0225,-0.0243,-0.026,-0.0344,-0.0389,-0.0434,-0.043,-0.0449,-0.0469,-0.0451,-0.0472,-0.0473,-0.0475,-0.0482,-0.0484,-0.0457,-0.0457,-0.0457,-0.0458,0,-0.003,-0.0025,-0.0014,-0.0021,-0.003,-0.0025,-0.0068,-0.0081,-0.0116,-0.0154,-0.0197,-0.0269,-0.032,-0.0341,-0.0383,-0.0417,-0.0422,-0.046,-0.049,-0.0471,-0.0478,-0.0482,-0.0452,-0.0453,-0.0454,-0.0455,0,0,0.0042,0.003,0.0034,0.0041,0.0012,0.0012,0.0006,-0.002,-0.0027,-0.0082,-0.0098,-0.018,-0.0231,-0.0265,-0.0329,-0.0379,-0.0406,-0.0418,-0.0422,-0.0425,-0.0483,-0.0447,-0.0448,-0.0453,-0.0454,-0.0454,-0.0473,0,0.0101,0.0141,0.0115,0.0151,0.0165,0.0111,0.0114,0.0077,0.0035,0.0008,-0.0089,-0.0123,-0.0199,-0.0223,-0.0289,-0.0379,-0.0418,-0.0395,-0.05,-0.0502,-0.0475,-0.0452,-0.0425,-0.0436,-0.0477,-0.0478,-0.0478,0,0.0166,0.0181,0.0227,0.0226,0.0229,0.0239,0.0219,0.0211,0.0145,0.0114,0.0044,-0.0025,-0.0109,-0.0171,-0.0316,-0.0298,-0.0379,-0.045,-0.0453,-0.0445,-0.0474,-0.0468,-0.0442,-0.0625,-0.0485,-0.0484,-0.0484,0,0.0232,0.0257,0.0294,0.0295,0.029,0.0296,0.0286,0.024,0.0248,0.0177,0.018,0.0054,0.0018,-0.0124,-0.0263,-0.0293,-0.0406,-0.0468,-0.0507,-0.0504,-0.0513,-0.0509,-0.068,-0.0561,-0.0561,-0.0561,-0.0561,0,0.0295,0.0325,0.0327,0.0347,0.0393,0.0359,0.0388,0.0361,0.0342,0.0365,0.0237,0.0246,0.0027,-0.0062,-0.022,-0.0352,-0.037,-0.0488,-0.0511,-0.0487,-0.0481,-0.0667,-0.0778,-0.0562,-0.0561,-0.0561,-0.0561,0,0.0351,0.0355,0.0402,0.0414,0.0425,0.0451,0.0475,0.0498,0.0466,0.0495,0.0488,0.0401,0.0293,0.0093,-0.011,-0.026,-0.051,-0.0456,-0.0384,-0.0399,-0.0619,-0.0726,-0.0909,-0.0994,-0.0513,-0.0512,-0.0511,0,0.038,0.0412,0.0458,0.0495,0.0502,0.0537,0.0571,0.0562,0.0596,0.0605,0.0638,0.0564,0.0543,0.0276,-0.0006,-0.0249,-0.0453,-0.0395,-0.0464,-0.0615,-0.0754,-0.0843,-0.0908,-0.0444,-0.0443,-0.0442,-0.0441,0,0.0438,0.0455,0.0493,0.0571,0.0621,0.068,0.0725,0.0786,0.0788,0.0847,0.0918,0.0917,0.0671,0.0459,0.012,-0.0083,-0.0525,-0.0383,-0.0584,-0.0742,-0.0809,-0.0904,-0.0423,-0.0433,-0.0434,-0.0435,-0.0435,-0.0435,0.0483,0.0521,0.0577,0.065,0.0721,0.0817,0.0882,0.0963,0.1078,0.1181,0.1158,0.1214,0.086,0.0417,0.0114,-0.042,-0.046,-0.0597,-0.0717,-0.0794,-0.0879,-0.0346,-0.0359,-0.036,-0.036,-0.036,-0.036,0,0.0537,0.0579,0.0653,0.0747,0.0838,0.0862,0.0987,0.1076,0.1245,0.1373,0.1463,0.1379,0.0934,0.0434,-0.0268,-0.0675,-0.0867,-0.0919,-0.1077,-0.1132,-0.0694,-0.0694,-0.0726,-0.0726,-0.0726,-0.0726,-0.0725,-0.0725,0.0568,0.0644,0.0677,0.0831,0.0904,0.1036,0.1121,0.1283,0.1413,0.1624,0.1717,0.1749,0.1414,0.0086,-0.0848,-0.1085,-0.1385,-0.1441,-0.1609,-0.1349,-0.133,-0.1311,-0.1339,-0.1506,-0.1507,-0.1996,-0.2001,-0.2005]}],[{"header":{"parameterUnit":"m.s-1","parameterCategory":2,"la1":30.2991,"la2":30.254,"lo1":-89.0895,"lo2":-89.0444,"dy":0.0017,"dx":0.0017,"nx":28,"ny":28,"refTime":"2024-05-13T21:00:00:Z","depth":"2","parameterNumber":2,"parameterNumberName":"U-component_of_CURRENTS"},"data":[0,0,0,0,0,0,0,0,0,0,0,0,0,0,0,0,0,0,0,0,0,0,0,0,0,0,0,0,0,0,0,0,0,0,0,0,0,0,0,0,0,0,0,0,0,0,0,0,0,0,0,0,0,0,0,0,0,0,0.2578,0.2578,0,0.2565,0.2565,0.2564,0.2584,0.2585,0.2586,0.2587,0.2599,0.2598,0.2597,0,0,0,0,0,0,0,0,0,0,0,0,0,0.2527,0.2528,0.2578,0.2578,0.2578,0.2565,0.2565,0.2564,0.2584,0.2585,0.2587,0.2588,0.2599,0.2598,0.2597,0,0,0,0,0,0,0,0,0,0,0,0,0,0.2532,0.2529,0.2578,0.2589,0.259,0.2565,0.2565,0.2564,0.2584,0.2585,0.2587,0.2588,0.2599,0.2598,0.2597,0.2562,0,0,0.2594,0.2594,0,0,0,0,0,0,0,0,0.2532,0.2534,0.2587,0.2588,0.2589,0.2581,0.2551,0.2566,0.2583,0.2583,0.2587,0.2589,0.2596,0.2595,0.2585,0.2562,0.2563,0.2594,0.2594,0.2593,0.2593,0,0,0,0,0,0,0,0.2532,0.2534,0.2569,0.2587,0.2589,0.2563,0.2566,0.2553,0.2579,0.2583,0.2585,0.2589,0.2597,0.2585,0.2585,0.2563,0.2594,0.2594,0.2593,0.2593,0.2611,0.2612,0,0,0,0,0,0,0.2544,0.2534,0.257,0.2569,0.2568,0.2564,0.2567,0.2579,0.2579,0.2581,0.2587,0.259,0.2586,0.2586,0.2586,0.2629,0.2593,0.2592,0.2592,0.261,0.2611,0.2612,0,0,0,0,0,0,0.2543,0.2547,0.257,0.2553,0.2555,0.2564,0.2577,0.2578,0.2586,0.2582,0.2585,0.2597,0.2587,0.2587,0.2598,0.2626,0.2592,0.2591,0.2608,0.261,0.2612,0.266,0,0,0,0,0,0,0.2541,0.2547,0.2549,0.2555,0.2557,0.2573,0.2576,0.2577,0.2586,0.259,0.2591,0.2592,0.2589,0.26,0.2597,0.2624,0.259,0.2607,0.2609,0.2611,0.2657,0.2663,0.2668,0,0,0,0,0,0.254,0.2538,0.255,0.2554,0.2564,0.2573,0.2572,0.258,0.2586,0.2591,0.2598,0.2593,0.2611,0.2599,0.2596,0.2624,0.2606,0.2609,0.2611,0.2655,0.2662,0.2668,0,0,0,0,0,0,0.2508,0.254,0.2553,0.256,0.2576,0.2579,0.2578,0.2585,0.259,0.2598,0.2595,0.2596,0.2623,0.261,0.2598,0.2636,0.2612,0.2614,0.2646,0.2653,0.2658,0.2682,0.259,0,0,0,0,0,0.2506,0.2523,0.2545,0.2553,0.2563,0.2572,0.2574,0.2586,0.2594,0.2598,0.2603,0.2611,0.2624,0.2629,0.2634,0.2641,0.2664,0.2661,0.2666,0.2671,0.2689,0.2755,0.2769,0.262,0.262,0.262,0,0,0.2496,0.2516,0.2525,0.2549,0.256,0.2577,0.2577,0.2591,0.2612,0.2597,0.2622,0.2628,0.2631,0.2653,0.2664,0.2649,0.2724,0.2674,0.2678,0.2694,0.2759,0.2774,0.2787,0.2621,0.2621,0.2621,0,0,0.2488,0.2507,0.2521,0.2539,0.2567,0.2579,0.259,0.2608,0.2624,0.2641,0.265,0.2678,0.2675,0.2699,0.2706,0.2741,0.2754,0.274,0.2783,0.2847,0.286,0.2872,0.2914,0.293,0.274,0.274,0.274,0,0.2475,0.2501,0.2523,0.2543,0.2562,0.2586,0.2608,0.2623,0.2644,0.2665,0.266,0.2705,0.2704,0.2754,0.2771,0.2757,0.2788,0.2756,0.2856,0.2868,0.288,0.292,0.2937,0.2743,0.2742,0.2742,0.2742,0,0.2482,0.2505,0.2515,0.256,0.258,0.2602,0.2638,0.2662,0.2684,0.2705,0.276,0.2769,0.2805,0.2807,0.2797,0.2879,0.2873,0.2859,0.2842,0.2898,0.2936,0.2953,0.2746,0.2745,0.2745,0.2744,0,0,0.2446,0.251,0.2513,0.254,0.2595,0.261,0.2659,0.2707,0.2748,0.2777,0.2836,0.2865,0.2888,0.29,0.2905,0.2952,0.3051,0.2943,0.2945,0.2989,0.3189,0.3134,0.3146,0.306,0.3063,0.3066,0.3181,0,0.2447,0.2488,0.2523,0.2566,0.2592,0.2641,0.2685,0.2735,0.278,0.284,0.2883,0.2936,0.2919,0.2949,0.3001,0.3045,0.3098,0.3021,0.3124,0.3127,0.3076,0.3164,0.2942,0.3023,0.3197,0.3199,0.3201,0,0.2437,0.2472,0.2513,0.2585,0.2602,0.2632,0.2716,0.276,0.2854,0.2896,0.297,0.3007,0.3098,0.3068,0.3196,0.3151,0.3182,0.3205,0.321,0.3157,0.3103,0.2996,0.3045,0.3228,0.3226,0.3224,0.3222,0,0.2394,0.2461,0.2495,0.2518,0.2601,0.2633,0.2683,0.2773,0.2826,0.2944,0.3003,0.3105,0.3178,0.3242,0.3298,0.3263,0.3429,0.3381,0.336,0.3355,0.3186,0.3161,0.3478,0.3478,0.3478,0.3477,0.3477,0,0.2375,0.2399,0.2477,0.2493,0.254,0.2613,0.2678,0.2745,0.2858,0.293,0.3034,0.3114,0.3232,0.3328,0.3351,0.3421,0.3481,0.3398,0.3397,0.3194,0.3169,0.3357,0.3341,0.3482,0.3481,0.348,0.3479,0,0.2313,0.2366,0.2403,0.249,0.2516,0.2548,0.2659,0.2714,0.2835,0.294,0.2987,0.3161,0.3293,0.3385,0.3507,0.3496,0.3552,0.3552,0.3299,0.3266,0.3417,0.3402,0.3548,0.3547,0.3547,0.3546,0.3546,0,0.2283,0.2298,0.2376,0.2399,0.2435,0.2501,0.2551,0.2679,0.2747,0.2949,0.2998,0.318,0.3282,0.3456,0.349,0.3552,0.357,0.3353,0.3241,0.3448,0.3432,0.3419,0.3405,0.3032,0.3028,0.3024,0.3021,0,0.2224,0.2251,0.2283,0.2331,0.2377,0.2428,0.2515,0.2558,0.2719,0.2822,0.2971,0.3074,0.3276,0.3265,0.3364,0.3351,0.3325,0.3278,0.3595,0.3045,0.297,0.2952,0.2954,0.2988,0.2991,0.2993,0.2995,0.2997,0.2171,0.2175,0.2219,0.2254,0.2302,0.2335,0.2346,0.2449,0.2531,0.2654,0.283,0.2918,0.3035,0.3077,0.3024,0.2997,0.3206,0.3062,0.307,0.3083,0.2999,0.2928,0.2921,0.2923,0.2926,0.2928,0.293,0,0.2096,0.2115,0.2145,0.2172,0.2177,0.2243,0.2304,0.2297,0.2339,0.2497,0.2608,0.2506,0.2551,0.264,0.2579,0.2617,0.2555,0.2491,0.2385,0.2424,0.2458,0.2335,0.2084,0.208,0.2077,0.2073,0,0,0.206,0.2049,0.2061,0.2033,0.2058,0.2032,0.2039,0.2047,0.2123,0.2143,0.2192,0.2431,0.2588,0.2282,0.2286,0.2166,0.2256,0.2088,0.2786,0.2702,0.2729,0.2831,0.2695,0,0,0,0,0]},{"header":{"parameterUnit":"m.s-1","parameterCategory":2,"la1":30.2991,"la2":30.254,"lo1":-89.0895,"lo2":-89.0444,"dy":0.0017,"dx":0.0017,"nx":28,"ny":28,"refTime":"2024-05-13T21:00:00:Z","depth":"2","parameterNumber":3,"parameterNumberName":"V-component_of_CURRENTS"},"data":[0,0,0,0,0,0,0,0,0,0,0,0,0,0,0,0,0,0,0,0,0,0,0,0,0,0,0,0,0,0,0,0,0,0,0,0,0,0,0,0,0,0,0,0,0,0,0,0,0,0,0,0,0,0,0,0,0,0,0.005,0.0049,0,-0.0002,-0.0002,-0.0003,-0.0044,-0.0044,-0.0044,-0.0044,-0.0133,-0.0135,-0.0137,0,0,0,0,0,0,0,0,0,0,0,0,0,0.0095,0.0094,0.005,0.0049,0.0049,-0.0002,-0.0002,-0.0003,-0.0044,-0.0044,-0.0044,-0.0045,-0.0132,-0.0135,-0.0137,0,0,0,0,0,0,0,0,0,0,0,0,0,0.0062,0.0094,0.005,0.0023,0.0021,-0.0002,-0.0003,-0.0004,-0.0043,-0.0044,-0.0044,-0.0045,-0.0131,-0.0134,-0.0138,-0.0148,0,0,-0.0147,-0.0148,0,0,0,0,0,0,0,0,0.0064,0.006,0.0028,0.0025,0.0022,-0.0016,-0.0019,-0.0053,-0.0043,-0.002,-0.0044,-0.0045,-0.0096,-0.0102,-0.0112,-0.0152,-0.0156,-0.0147,-0.0149,-0.0151,-0.0151,0,0,0,0,0,0,0,0.0066,0.0062,0.0028,0.0027,0.0024,0.0008,0.0002,-0.0026,-0.0057,-0.0022,-0.0025,-0.0029,-0.0098,-0.0109,-0.0114,-0.0157,-0.0147,-0.015,-0.0152,-0.0153,-0.0228,-0.0228,0,0,0,0,0,0,0.0076,0.0064,0.003,0.0027,0.0043,0.0007,0.0002,-0.0004,-0.0056,-0.0063,-0.0029,-0.0031,-0.0103,-0.0111,-0.0118,-0.014,-0.0151,-0.0153,-0.0155,-0.0228,-0.0228,-0.0228,0,0,0,0,0,0,0.0077,0.0073,0.0032,0.0045,0.0039,0.0007,0.0001,-0.0005,-0.0019,-0.006,-0.0068,-0.0037,-0.0104,-0.0113,-0.0148,-0.0144,-0.0155,-0.0158,-0.0228,-0.0228,-0.0228,-0.0181,0,0,0,0,0,0,0.0078,0.0074,0.0076,0.0046,0.0039,0.0018,0.0002,-0.0005,-0.002,-0.0023,-0.007,-0.0078,-0.0105,-0.0143,-0.0151,-0.0148,-0.016,-0.0227,-0.0228,-0.0228,-0.0182,-0.0179,-0.0177,0,0,0,0,0,0.008,0.0086,0.0076,0.0072,0.0041,0.0018,0.0012,-0.0012,-0.002,-0.0027,-0.0059,-0.0077,-0.015,-0.0146,-0.0155,-0.0153,-0.0227,-0.0228,-0.0228,-0.0183,-0.018,-0.0177,0,0,0,0,0,0,0.0107,0.0082,0.007,0.0068,0.0044,0.0011,0.0007,-0.001,-0.004,-0.0042,-0.0082,-0.0093,-0.0121,-0.0145,-0.0139,-0.0176,-0.019,-0.0192,-0.0153,-0.015,-0.0148,-0.0126,-0.0163,0,0,0,0,0,0.0115,0.011,0.0081,0.0078,0.0069,0.0038,0.0027,0.001,-0.002,-0.0033,-0.0066,-0.0099,-0.0128,-0.0145,-0.0177,-0.0197,-0.0218,-0.0201,-0.0199,-0.0196,-0.0186,-0.0222,-0.0221,-0.0229,-0.0229,-0.0229,0,0,0.0123,0.011,0.0106,0.0083,0.0064,0.0057,0.003,0.0015,0.0009,-0.0038,-0.0058,-0.0093,-0.0133,-0.0156,-0.0171,-0.0176,-0.0204,-0.0196,-0.0194,-0.0185,-0.0222,-0.0221,-0.022,-0.0229,-0.0229,-0.0229,0,0,0.014,0.0127,0.0128,0.0112,0.0089,0.0071,0.0068,0.0034,0.0019,-0.0007,-0.0039,-0.0069,-0.0117,-0.014,-0.0159,-0.016,-0.019,-0.0172,-0.014,-0.0176,-0.0175,-0.0175,-0.0194,-0.0195,-0.0169,-0.0169,-0.0169,0,0.0151,0.0152,0.0124,0.0123,0.012,0.0081,0.0086,0.0063,0.0022,0.0017,-0.0008,-0.0068,-0.0106,-0.0125,-0.0128,-0.0152,-0.0174,-0.0147,-0.0171,-0.0171,-0.0172,-0.0191,-0.0194,-0.0167,-0.0167,-0.0167,-0.0167,0,0.0167,0.0169,0.017,0.0159,0.0149,0.0146,0.0117,0.0103,0.0081,0.0059,0.003,-0.0025,-0.0056,-0.0077,-0.0106,-0.0124,-0.0139,-0.0164,-0.0175,-0.0168,-0.0189,-0.0193,-0.0164,-0.0164,-0.0165,-0.0166,0,0,0.0191,0.0184,0.0185,0.0197,0.0173,0.0172,0.0162,0.0151,0.0159,0.0104,0.0107,0.0043,0.0015,-0.0007,-0.0049,-0.0084,-0.0112,-0.0123,-0.0126,-0.0133,-0.0181,-0.0195,-0.0201,-0.0146,-0.0146,-0.0146,-0.0192,0,0.0214,0.0235,0.022,0.0243,0.0256,0.0228,0.023,0.0213,0.019,0.0179,0.012,0.01,0.0041,0.0028,-0.0017,-0.0085,-0.012,-0.0096,-0.0194,-0.0196,-0.0203,-0.0205,-0.018,-0.022,-0.0196,-0.0196,-0.0197,0,0.0239,0.0254,0.0283,0.0307,0.031,0.0313,0.0327,0.0321,0.0292,0.0276,0.0239,0.0189,0.0137,0.0081,-0.0029,-0.0013,-0.009,-0.015,-0.0153,-0.0183,-0.0217,-0.0226,-0.0227,-0.0203,-0.0202,-0.0202,-0.0201,0,0.0287,0.0304,0.0337,0.0341,0.0351,0.0363,0.0365,0.0351,0.0371,0.0336,0.0346,0.0264,0.0239,0.0123,-0.0002,-0.002,-0.0123,-0.0162,-0.0245,-0.0247,-0.0252,-0.0253,-0.0241,-0.0241,-0.0241,-0.0241,-0.0241,0,0.0327,0.0354,0.0363,0.0383,0.0431,0.0414,0.0457,0.045,0.0456,0.0499,0.04,0.0414,0.0245,0.0164,0.003,-0.0108,-0.01,-0.0234,-0.0261,-0.0235,-0.0234,-0.0242,-0.0242,-0.0243,-0.0242,-0.0242,-0.0242,0,0.037,0.0375,0.042,0.0443,0.0456,0.0487,0.0528,0.0564,0.0554,0.0605,0.0602,0.0533,0.0426,0.0256,0.0084,-0.0047,-0.0191,-0.0243,-0.0192,-0.0212,-0.0299,-0.0296,-0.0344,-0.0345,-0.0346,-0.0346,-0.0347,0,0.0393,0.0421,0.0469,0.0505,0.0516,0.0558,0.06,0.0613,0.0662,0.069,0.0729,0.0644,0.0608,0.0344,0.0093,-0.0139,-0.0175,-0.0273,-0.0311,-0.0289,-0.0311,-0.0306,-0.0302,-0.0297,-0.0297,-0.0297,-0.0297,0,0.0443,0.0458,0.0497,0.057,0.0621,0.0685,0.0742,0.0802,0.0836,0.0885,0.0938,0.0912,0.0664,0.0433,0.0103,-0.0062,-0.024,-0.0283,-0.0274,-0.0275,-0.0249,-0.0269,-0.0265,-0.0298,-0.0298,-0.0298,-0.0298,-0.0298,0.0482,0.0517,0.0571,0.064,0.0709,0.0802,0.0866,0.0947,0.1046,0.1129,0.1099,0.1074,0.0799,0.0386,0.0084,-0.0243,-0.0233,-0.0345,-0.0343,-0.0341,-0.0328,-0.0305,-0.0361,-0.0361,-0.0361,-0.0362,-0.0362,0,0.0527,0.0568,0.0638,0.0725,0.0811,0.0838,0.0962,0.1035,0.1165,0.1244,0.1284,0.1048,0.0778,0.0455,-0.0023,-0.031,-0.034,-0.0402,-0.0371,-0.0368,-0.0366,-0.0353,-0.0393,-0.0394,-0.0395,-0.0396,0,0,0.0554,0.0623,0.0655,0.0794,0.0862,0.0983,0.106,0.1179,0.1264,0.1344,0.1346,0.1295,0.0907,0.0563,0.0165,-0.0112,-0.0177,-0.0173,-0.0117,-0.003,-0.0024,-0.0301,-0.0274,0,0,0,0,0]}],[{"header":{"parameterUnit":"m.s-1","parameterCategory":2,"la1":30.2991,"la2":30.254,"lo1":-89.0895,"lo2":-89.0444,"dy":0.0017,"dx":0.0017,"nx":28,"ny":28,"refTime":"2024-05-13T21:00:00:Z","depth":"4","parameterNumber":2,"parameterNumberName":"U-component_of_CURRENTS"},"data":[0,0,0,0,0,0,0,0,0,0,0,0,0,0,0,0,0,0,0,0,0,0,0,0,0,0,0,0,0,0,0,0,0,0,0,0,0,0,0,0,0,0,0,0,0,0,0,0,0,0,0,0,0,0,0,0,0,0,0.1633,0.1634,0,0.1697,0.1698,0.1698,0.1744,0.1745,0.1745,0.1746,0.1821,0.1823,0.1824,0,0,0,0,0,0,0,0,0,0,0,0,0,0.1552,0.1553,0.1633,0.1634,0.1635,0.1697,0.1698,0.1698,0.1744,0.1745,0.1746,0.1746,0.1821,0.1822,0.1824,0,0,0,0,0,0,0,0,0,0,0,0,0,0.1597,0.1553,0.1633,0.1667,0.1671,0.1697,0.1698,0.1698,0.1744,0.1745,0.1746,0.1747,0.182,0.1822,0.1824,0.1821,0,0,0.1831,0.1832,0,0,0,0,0,0,0,0,0.1594,0.1599,0.1661,0.1665,0.1669,0.1715,0.1697,0.1741,0.1744,0.1714,0.1746,0.1747,0.1787,0.1792,0.18,0.1825,0.1828,0.1831,0.1833,0.1834,0.1834,0,0,0,0,0,0,0,0.1591,0.1597,0.1656,0.1662,0.1667,0.1679,0.1686,0.1705,0.1744,0.1717,0.1721,0.1731,0.179,0.1797,0.1802,0.1829,0.1831,0.1833,0.1835,0.1836,0.1957,0.1958,0,0,0,0,0,0,0.1586,0.1594,0.1654,0.1659,0.1635,0.168,0.1688,0.1698,0.1744,0.1752,0.173,0.1733,0.1793,0.1799,0.1805,0.189,0.1834,0.1836,0.1837,0.1955,0.1957,0.1959,0,0,0,0,0,0,0.1584,0.1591,0.1652,0.1629,0.1638,0.1681,0.1692,0.1699,0.1743,0.1754,0.1762,0.1771,0.1794,0.1802,0.1853,0.189,0.1837,0.1839,0.1952,0.1955,0.1958,0.2005,0,0,0,0,0,0,0.1581,0.159,0.1614,0.1629,0.1639,0.1692,0.1691,0.17,0.1746,0.1752,0.1791,0.1797,0.1795,0.185,0.1855,0.1892,0.1841,0.195,0.1954,0.1957,0.2001,0.2009,0.2016,0,0,0,0,0,0.1578,0.1602,0.1614,0.1623,0.1665,0.1693,0.1701,0.1731,0.1748,0.1774,0.1802,0.1798,0.1876,0.1853,0.1859,0.1897,0.1948,0.1953,0.1957,0.1998,0.2008,0.2016,0,0,0,0,0,0,0.1582,0.1609,0.1623,0.1656,0.1685,0.1703,0.1736,0.1753,0.1795,0.1812,0.1818,0.1826,0.1887,0.1888,0.1862,0.1944,0.1913,0.1919,0.1943,0.1952,0.1959,0.1961,0.1842,0,0,0,0,0,0.1592,0.162,0.1643,0.1676,0.1693,0.1721,0.1745,0.1766,0.1796,0.1817,0.1844,0.1875,0.1902,0.1925,0.1949,0.1991,0.1995,0.2022,0.203,0.2036,0.2043,0.2064,0.2073,0.1973,0.1973,0.1973,0,0,0.1603,0.1624,0.1642,0.168,0.1706,0.1736,0.1739,0.1786,0.1819,0.1817,0.1885,0.1907,0.1921,0.197,0.1997,0.1979,0.2073,0.2041,0.2046,0.205,0.2069,0.2078,0.2087,0.1976,0.1975,0.1975,0,0,0.1626,0.166,0.1687,0.1714,0.1761,0.1776,0.1797,0.1838,0.1869,0.1924,0.1935,0.1979,0.2025,0.204,0.205,0.2115,0.2113,0.2133,0.217,0.219,0.2198,0.2205,0.2243,0.2253,0.2134,0.2134,0.2134,0,0.1643,0.1676,0.1702,0.1733,0.1762,0.1797,0.1831,0.1864,0.192,0.1946,0.1957,0.2036,0.2054,0.2099,0.2127,0.2132,0.2149,0.213,0.2198,0.2205,0.2211,0.2248,0.2258,0.2137,0.2136,0.2136,0.2136,0,0.1672,0.1714,0.1735,0.1783,0.1818,0.1859,0.1897,0.1945,0.1987,0.2012,0.2085,0.211,0.2153,0.2171,0.2171,0.2231,0.2232,0.2204,0.217,0.2224,0.226,0.227,0.2141,0.214,0.2139,0.2138,0,0,0.1662,0.1741,0.1751,0.1783,0.1851,0.1875,0.194,0.1994,0.2036,0.2096,0.2147,0.2205,0.2226,0.2241,0.2253,0.2276,0.2345,0.2269,0.2268,0.2298,0.2412,0.2283,0.2281,0.2327,0.2329,0.233,0.2427,0,0.168,0.1739,0.1779,0.1844,0.1876,0.1932,0.1979,0.2036,0.2091,0.2149,0.2188,0.2246,0.2249,0.2283,0.2308,0.2336,0.237,0.2323,0.2364,0.2365,0.2235,0.2287,0.2335,0.2434,0.2436,0.2438,0.2439,0,0.1685,0.1727,0.1791,0.1867,0.1888,0.1936,0.202,0.2072,0.2152,0.2197,0.226,0.2292,0.2361,0.2344,0.2422,0.2395,0.2418,0.243,0.2433,0.2299,0.2252,0.2365,0.2456,0.2455,0.2454,0.2452,0.2451,0,0.164,0.173,0.1783,0.1812,0.1902,0.1951,0.2008,0.2091,0.2139,0.2241,0.2287,0.2356,0.2413,0.2442,0.2489,0.2465,0.2561,0.252,0.2429,0.2422,0.2488,0.2479,0.2572,0.2572,0.2572,0.2571,0.2571,0,0.1619,0.1664,0.1774,0.18,0.1863,0.194,0.2014,0.208,0.2175,0.2227,0.2316,0.236,0.2442,0.2501,0.2517,0.251,0.2588,0.2449,0.2433,0.251,0.2502,0.2496,0.2486,0.2575,0.2574,0.2573,0.2573,0,0.1552,0.1628,0.1691,0.1803,0.1843,0.1891,0.2013,0.2057,0.2168,0.2243,0.2282,0.2396,0.2472,0.254,0.2606,0.2542,0.2546,0.2526,0.264,0.2628,0.2391,0.2383,0.2421,0.2417,0.2414,0.2411,0.2409,0,0.1518,0.1548,0.1677,0.1718,0.1778,0.1864,0.1915,0.2038,0.2085,0.2239,0.2258,0.2386,0.2447,0.2442,0.252,0.255,0.2521,0.2511,0.2414,0.2392,0.2374,0.2371,0.2367,0.2403,0.2402,0.2402,0.2401,0,0.1449,0.1514,0.1566,0.165,0.1721,0.1778,0.1869,0.1886,0.2021,0.2143,0.2183,0.2223,0.2311,0.2356,0.2411,0.2417,0.2499,0.2476,0.2481,0.239,0.2371,0.2356,0.2356,0.2389,0.2391,0.2392,0.2393,0,0.1402,0.1421,0.1503,0.1561,0.1643,0.1666,0.1725,0.1781,0.1839,0.2008,0.202,0.2157,0.2284,0.229,0.233,0.2339,0.2296,0.2207,0.2226,0.2239,0.2133,0.208,0.2003,0,0,0,0,0,0.1341,0.1353,0.1406,0.1457,0.1531,0.1578,0.1677,0.1739,0.1869,0.1851,0.1928,0.1997,0.2057,0.2127,0.2102,0.2259,0.231,0.2219,0.2218,0.2326,0.234,0.223,0,0,0,0,0,0,0.13,0.1348,0.1366,0.1355,0.1373,0.1435,0.1493,0.1586,0.1578,0.1724,0.1768,0.1885,0.1975,0.2057,0.2066,0.2091,0.2051,0.2313,0.2308,0.2319,0.2331,0.2341,0.2234,0,0,0,0,0]},{"header":{"parameterUnit":"m.s-1","parameterCategory":2,"la1":30.2991,"la2":30.254,"lo1":-89.0895,"lo2":-89.0444,"dy":0.0017,"dx":0.0017,"nx":28,"ny":28,"refTime":"2024-05-13T21:00:00:Z","depth":"4","parameterNumber":3,"parameterNumberName":"V-component_of_CURRENTS"},"data":[0,0,0,0,0,0,0,0,0,0,0,0,0,0,0,0,0,0,0,0,0,0,0,0,0,0,0,0,0,0,0,0,0,0,0,0,0,0,0,0,0,0,0,0,0,0,0,0,0,0,0,0,0,0,0,0,0,0,0.017,0.017,0,0.0129,0.0128,0.0128,0.0116,0.0117,0.0117,0.0117,0.0062,0.006,0.0058,0,0,0,0,0,0,0,0,0,0,0,0,0,0.0195,0.0194,0.017,0.017,0.0169,0.0129,0.0128,0.0127,0.0116,0.0117,0.0117,0.0117,0.0062,0.006,0.0058,0,0,0,0,0,0,0,0,0,0,0,0,0,0.0171,0.0194,0.017,0.0159,0.0158,0.0129,0.0128,0.0127,0.0116,0.0117,0.0117,0.0118,0.0063,0.0061,0.0058,0.0033,0,0,0.005,0.0049,0,0,0,0,0,0,0,0,0.0172,0.017,0.0161,0.016,0.0158,0.0129,0.0116,0.0095,0.0116,0.0131,0.0117,0.0118,0.0083,0.0079,0.0069,0.003,0.0028,0.005,0.0048,0.0047,0.0046,0,0,0,0,0,0,0,0.0174,0.0172,0.0153,0.0161,0.0159,0.0141,0.0138,0.0112,0.0104,0.013,0.0129,0.0125,0.0082,0.0072,0.0068,0.0027,0.005,0.0048,0.0046,0.0045,-0.003,-0.003,0,0,0,0,0,0,0.0182,0.0173,0.0154,0.0152,0.0167,0.014,0.0137,0.0137,0.0105,0.0101,0.0125,0.0125,0.0076,0.0071,0.0066,0.0051,0.0047,0.0045,0.0043,-0.003,-0.003,-0.0031,0,0,0,0,0,0,0.0183,0.0181,0.0156,0.0162,0.0158,0.014,0.0139,0.0136,0.0127,0.0102,0.0097,0.012,0.0076,0.007,0.0043,0.0048,0.0043,0.0041,-0.0029,-0.003,-0.003,0.0009,0,0,0,0,0,0,0.0184,0.0182,0.0183,0.0163,0.0158,0.0138,0.0139,0.0135,0.0124,0.0124,0.0095,0.009,0.0076,0.0047,0.004,0.0044,0.0039,-0.0029,-0.0029,-0.003,0.0008,0.001,0.0011,0,0,0,0,0,0.0185,0.0186,0.0184,0.0181,0.0161,0.0138,0.0133,0.0122,0.0124,0.0116,0.0099,0.0091,0.0037,0.0044,0.0036,0.004,-0.0028,-0.0029,-0.003,0.0008,0.001,0.0011,0,0,0,0,0,0,0.0196,0.0184,0.0181,0.0178,0.016,0.0137,0.013,0.0121,0.0101,0.0104,0.0082,0.0076,0.0054,0.0036,0.0044,0.0014,0.0004,0.0002,0.0036,0.0037,0.0039,0.0061,0.0037,0,0,0,0,0,0.0199,0.0198,0.0179,0.0176,0.0169,0.015,0.0139,0.0131,0.0112,0.0104,0.0084,0.0063,0.0043,0.0032,0.0008,-0.0011,-0.0025,-0.0014,-0.0012,-0.0011,0.0001,-0.0009,-0.0007,-0.0034,-0.0034,-0.0034,0,0,0.0202,0.0196,0.0194,0.0178,0.0165,0.0158,0.0144,0.0131,0.0128,0.01,0.0088,0.0064,0.0037,0.002,0.0009,0.0007,-0.0017,-0.0012,-0.001,0.0001,-0.001,-0.0007,-0.0004,-0.0034,-0.0034,-0.0034,0,0,0.0206,0.0202,0.0202,0.019,0.0173,0.0163,0.016,0.0136,0.013,0.0108,0.0094,0.0076,0.0036,0.0028,0.0017,0.0009,-0.0011,-0.0004,0.0026,0.0016,0.0019,0.0021,-0.0014,-0.0015,0.0,0.0,0.0,0,0.0209,0.0212,0.0196,0.0193,0.0192,0.0168,0.017,0.0155,0.0126,0.0127,0.0109,0.0071,0.0045,0.0041,0.0038,0.0016,-0.0003,0.0025,0.0021,0.0023,0.0025,-0.0012,-0.0014,0.0002,0.0002,0.0002,0.0002,0,0.0212,0.0217,0.0215,0.0212,0.0204,0.0201,0.0184,0.0175,0.0164,0.0153,0.0139,0.0101,0.0085,0.0069,0.005,0.0051,0.0027,0.0023,0.0023,0.003,-0.001,-0.0012,0.0005,0.0004,0.0004,0.0003,0,0,0.0218,0.0219,0.0221,0.0234,0.022,0.0219,0.0215,0.0213,0.0226,0.0188,0.0199,0.0158,0.0143,0.013,0.0103,0.0092,0.0075,0.0066,0.0064,0.0042,0.0034,0.0003,-0.0003,0.0073,0.0073,0.0073,-0.0006,0,0.0229,0.0244,0.0238,0.0258,0.0269,0.0257,0.0263,0.0258,0.0246,0.0246,0.0213,0.0206,0.0165,0.016,0.0142,0.0097,0.0074,0.0095,0.0021,0.0018,-0.0,-0.0005,0.0074,-0.0007,-0.0008,-0.0008,-0.0009,0,0.0237,0.0252,0.0276,0.0306,0.031,0.0316,0.034,0.034,0.0332,0.0326,0.031,0.0278,0.0251,0.0216,0.0145,0.0161,0.0102,0.0061,0.0057,0.0018,-0.0016,-0.0014,-0.0013,-0.0013,-0.0013,-0.0012,-0.0012,0,0.0265,0.0283,0.0313,0.0318,0.0338,0.0353,0.0364,0.0367,0.0391,0.0377,0.039,0.0343,0.0327,0.0255,0.0155,0.0153,0.0071,0.0059,-0.0031,-0.0035,0.0001,-0.0,0.0011,0.0011,0.0011,0.0011,0.0012,0,0.0285,0.031,0.033,0.0347,0.0394,0.0391,0.0437,0.0441,0.0461,0.0499,0.0436,0.0444,0.0339,0.0272,0.0175,0.006,0.0082,-0.0025,-0.005,0.0014,0.0015,-0.0002,-0.0002,0.0008,0.0009,0.001,0.001,0,0.0306,0.0318,0.0359,0.0392,0.0409,0.0441,0.0494,0.0529,0.0536,0.058,0.0581,0.0527,0.043,0.0305,0.0181,0.0092,-0.0017,-0.0065,-0.0004,-0.0025,-0.0127,-0.0124,-0.017,-0.0171,-0.0173,-0.0174,-0.0175,0,0.0317,0.0341,0.0396,0.043,0.0446,0.0494,0.0537,0.0567,0.0607,0.063,0.0656,0.0576,0.0515,0.0318,0.0174,-0.0029,-0.0057,-0.0123,-0.0112,-0.0122,-0.0142,-0.0137,-0.0133,-0.0177,-0.0177,-0.0178,-0.0178,0,0.0344,0.0364,0.04,0.047,0.0521,0.0583,0.0639,0.0679,0.0717,0.0727,0.0724,0.0614,0.0496,0.0323,0.0156,0.0015,-0.0082,-0.0138,-0.0136,-0.0126,-0.0132,-0.0149,-0.0143,-0.0183,-0.0182,-0.0182,-0.0181,0,0.0366,0.0395,0.0446,0.0506,0.0579,0.0649,0.0676,0.0722,0.0763,0.0785,0.0779,0.065,0.0578,0.0344,0.0198,0.0045,0.0005,-0.0038,-0.0042,-0.0039,0.0017,0.0031,0.0012,0,0,0,0,0,0.0382,0.0417,0.0478,0.0548,0.0623,0.0665,0.074,0.0761,0.0796,0.0808,0.08,0.0688,0.0469,0.0371,0.0214,0.015,-0.0038,-0.0042,-0.0094,-0.0209,-0.0204,-0.0163,0,0,0,0,0,0,0.0395,0.045,0.0478,0.0573,0.0625,0.0712,0.0763,0.0788,0.0788,0.08,0.0685,0.0641,0.0421,0.0561,0.0209,0.0161,0.0104,-0.0144,-0.0147,-0.0212,-0.0207,-0.0203,-0.0159,0,0,0,0,0]}]]